| time (UTC) | temp C | wind direction | speed KPH | gust KPH | rain 1hr cm | rain 24hr cm | rain mn cm | humidity % | barometer mb |
| 20260505120807 | 23 | 180 | 4.8 | 9.7 | 0.00 | 0.00 | 0.00 | 32 | 1016.3 |
| 20260505120308 | 23 | 270 | 4.8 | 8.0 | 0.00 | 0.00 | 0.00 | 32 | 1016.4 |
| 20260505115807 | 23 | 162 | 4.8 | 9.7 | 0.00 | 0.00 | 0.00 | 32 | 1016.6 |
| 20260505115307 | 23 | 203 | 3.2 | 9.7 | 0.00 | 0.00 | 0.00 | 32 | 1016.7 |
| 20260505114808 | 24 | 189 | 4.8 | 9.7 | 0.00 | 0.00 | 0.00 | 32 | 1016.6 |
| 20260505114308 | 24 | 199 | 6.4 | 9.7 | 0.00 | 0.00 | 0.00 | 32 | 1016.7 |
| 20260505113816 | 24 | 141 | 6.4 | 11.3 | 0.00 | 0.00 | 0.00 | 32 | 1016.7 |
| 20260505113307 | 23 | 220 | 4.8 | 9.7 | 0.00 | 0.00 | 0.00 | 32 | 1016.6 |
| 20260505112807 | 23 | 265 | 6.4 | 9.7 | 0.00 | 0.00 | 0.00 | 32 | 1016.8 |
| 20260505112307 | 23 | 225 | 4.8 | 9.7 | 0.00 | 0.00 | 0.00 | 32 | 1016.8 |
| 20260505111808 | 23 | 225 | 8.0 | 9.7 | 0.00 | 0.00 | 0.00 | 31 | 1016.9 |
| 20260505111307 | 23 | 222 | 3.2 | 9.7 | 0.00 | 0.00 | 0.00 | 31 | 1016.9 |
| 20260505110811 | 23 | 180 | 8.0 | 11.3 | 0.00 | 0.00 | 0.00 | 31 | 1016.9 |
| 20260505101807 | 23 | 321 | 3.2 | 4.8 | 0.00 | 0.00 | 0.00 | 30 | 1017.0 |
| 20260505101308 | 23 | 336 | 1.6 | 4.8 | 0.00 | 0.00 | 0.00 | 30 | 1017.1 |
| 20260505100307 | 23 | 0 | 1.6 | 3.2 | 0.00 | 0.00 | 0.00 | 31 | 1017.1 |
| 20260505095808 | 23 | 356 | 1.6 | 4.8 | 0.00 | 0.00 | 0.00 | 31 | 1017.0 |
| 20260505095307 | 23 | 276 | 1.6 | 4.8 | 0.00 | 0.00 | 0.00 | 30 | 1017.2 |
| 20260505094807 | 23 | 358 | 3.2 | 4.8 | 0.00 | 0.00 | 0.00 | 31 | 1017.3 |
| 20260505094308 | 23 | 193 | 1.6 | 4.8 | 0.00 | 0.00 | 0.00 | 31 | 1017.1 |
| 20260505093808 | 23 | 309 | 1.6 | 4.8 | 0.00 | 0.00 | 0.00 | 30 | 1017.1 |
| 20260505092811 | 23 | 0 | 3.2 | 4.8 | 0.00 | 0.00 | 0.00 | 30 | 1017.1 |
| 20260505092307 | 23 | 315 | 1.6 | 4.8 | 0.00 | 0.00 | 0.00 | 30 | 1017.0 |
| 20260505091808 | 23 | 0 | 1.6 | 4.8 | 0.00 | 0.00 | 0.00 | 30 | 1016.9 |
| 20260505091308 | 23 | 318 | 3.2 | 4.8 | 0.00 | 0.00 | 0.00 | 30 | 1017.1 |
| 20260505090308 | 23 | 0 | 4.8 | 4.8 | 0.00 | 0.00 | 0.00 | 31 | 1017.0 |
| 20260505085807 | 23 | 315 | 3.2 | 4.8 | 0.00 | 0.00 | 0.00 | 31 | 1016.9 |
| 20260505084807 | 23 | 337 | 4.8 | 8.0 | 0.00 | 0.00 | 0.00 | 30 | 1016.8 |
| 20260505084307 | 23 | 356 | 1.6 | 4.8 | 0.00 | 0.00 | 0.00 | 30 | 1016.8 |
| 20260505083807 | 23 | 219 | 1.6 | 3.2 | 0.00 | 0.00 | 0.00 | 31 | 1016.8 |
| 20260505082807 | 22 | 313 | 1.6 | 4.8 | 0.00 | 0.00 | 0.00 | 35 | 1016.9 |
| 20260505082308 | 22 | 90 | 1.6 | 4.8 | 0.00 | 0.00 | 0.00 | 39 | 1017.0 |
| 20260505081808 | 22 | 358 | 3.2 | 4.8 | 0.00 | 0.00 | 0.00 | 41 | 1017.1 |
| 20260505080807 | 21 | 189 | 1.6 | 3.2 | 0.00 | 0.00 | 0.00 | 42 | 1017.1 |
| 20260505080307 | 21 | 315 | 0.0 | 3.2 | 0.00 | 0.00 | 0.00 | 46 | 1017.2 |
| 20260505075807 | 21 | 94 | 1.6 | 4.8 | 0.00 | 0.00 | 0.00 | 47 | 1017.2 |
| 20260505075307 | 20 | 0 | 3.2 | 4.8 | 0.00 | 0.00 | 0.00 | 50 | 1017.2 |
| 20260505074807 | 20 | 132 | 3.2 | 4.8 | 0.00 | 0.00 | 0.00 | 51 | 1017.3 |
| 20260505074317 | 19 | 180 | 1.6 | 3.2 | 0.00 | 0.00 | 0.00 | 51 | 1017.3 |
| 20260505073808 | 19 | 356 | 1.6 | 3.2 | 0.00 | 0.00 | 0.00 | 51 | 1017.3 |
| 20260505072808 | 18 | 315 | 1.6 | 3.2 | 0.00 | 0.00 | 0.00 | 54 | 1017.4 |
| 20260505071811 | 18 | 315 | 1.6 | 3.2 | 0.00 | 0.00 | 0.00 | 60 | 1017.6 |
| 20260505071307 | 17 | 180 | 1.6 | 3.2 | 0.00 | 0.00 | 0.00 | 61 | 1017.6 |
| 20260505070807 | 17 | 181 | 1.6 | 1.6 | 0.00 | 0.00 | 0.00 | 62 | 1017.7 |
| 20260505070307 | 16 | 90 | 0.0 | 1.6 | 0.00 | 0.00 | 0.00 | 67 | 1017.8 |
| 20260505065808 | 16 | 356 | 0.0 | 1.6 | 0.00 | 0.00 | 0.00 | 67 | 1017.9 |
| 20260505065309 | 15 | 319 | 0.0 | 4.8 | 0.00 | 0.00 | 0.00 | 66 | 1017.9 |
| 20260505064808 | 15 | 315 | 1.6 | 3.2 | 0.00 | 0.00 | 0.00 | 66 | 1017.8 |
| 20260505064307 | 16 | 315 | 1.6 | 4.8 | 0.00 | 0.00 | 0.00 | 66 | 1017.8 |
| 20260505063807 | 15 | 315 | 1.6 | 1.6 | 0.00 | 0.00 | 0.00 | 69 | 1017.7 |
| 20260505063307 | 15 | 264 | 1.6 | 1.6 | 0.00 | 0.00 | 0.00 | 70 | 1017.6 |
| 20260505062808 | 15 | 135 | 0.0 | 3.2 | 0.00 | 0.00 | 0.00 | 70 | 1017.6 |
| 20260505061810 | 14 | 231 | 0.0 | 1.6 | 0.00 | 0.00 | 0.00 | 71 | 1017.8 |
| 20260505060807 | 14 | 313 | 0.0 | 1.6 | 0.00 | 0.00 | 0.00 | 71 | 1017.8 |
| 20260505060310 | 14 | 315 | 0.0 | 3.2 | 0.00 | 0.00 | 0.00 | 71 | 1018.0 |
| 20260505055308 | 13 | 214 | 1.6 | 1.6 | 0.00 | 0.00 | 0.00 | 73 | 1017.8 |
| 20260505054808 | 13 | 315 | 0.0 | 0.0 | 0.00 | 0.00 | 0.00 | 73 | 1017.6 |
| 20260505054308 | 13 | 310 | 0.0 | 1.6 | 0.00 | 0.00 | 0.00 | 73 | 1017.6 |
| 20260505053808 | 13 | 180 | 1.6 | 1.6 | 0.00 | 0.00 | 0.00 | 74 | 1017.7 |
| 20260505053310 | 12 | 233 | 0.0 | 1.6 | 0.00 | 0.00 | 0.00 | 74 | 1017.7 |
| 20260505052807 | 12 | 315 | 1.6 | 3.2 | 0.00 | 0.00 | 0.00 | 75 | 1017.6 |
| 20260505052307 | 12 | 315 | 1.6 | 3.2 | 0.00 | 0.00 | 0.00 | 77 | 1017.6 |
| 20260505051808 | 12 | 315 | 0.0 | 1.6 | 0.00 | 0.00 | 0.00 | 79 | 1017.5 |
| 20260505051308 | 12 | 267 | 0.0 | 1.6 | 0.00 | 0.00 | 0.00 | 80 | 1017.4 |
| 20260505050810 | 12 | 225 | 0.0 | 1.6 | 0.00 | 0.00 | 0.00 | 80 | 1017.4 |
| 20260505050308 | 12 | 225 | 0.0 | 0.0 | 0.00 | 0.00 | 0.00 | 80 | 1017.4 |
| 20260505041308 | 11 | 315 | 0.0 | 0.0 | 0.00 | 0.00 | 0.00 | 83 | 1017.1 |
| 20260505040807 | 11 | 185 | 0.0 | 0.0 | 0.00 | 0.00 | 0.00 | 83 | 1017.1 |
| 20260505040309 | 11 | 315 | 0.0 | 1.6 | 0.00 | 0.00 | 0.00 | 83 | 1017.1 |
| 20260505035808 | 11 | 315 | 1.6 | 1.6 | 0.00 | 0.00 | 0.00 | 83 | 1017.2 |
| 20260505035307 | 11 | 90 | 1.6 | 1.6 | 0.00 | 0.00 | 0.00 | 83 | 1017.2 |
| 20260505034807 | 11 | 315 | 1.6 | 1.6 | 0.00 | 0.00 | 0.00 | 83 | 1017.3 |
| 20260505034307 | 11 | 90 | 0.0 | 1.6 | 0.00 | 0.00 | 0.00 | 83 | 1017.3 |
| 20260505033807 | 11 | 135 | 0.0 | 1.6 | 0.00 | 0.00 | 0.00 | 83 | 1017.3 |
| 20260505032807 | 11 | 131 | 0.0 | 1.6 | 0.00 | 0.00 | 0.00 | 82 | 1017.1 |
| 20260505031807 | 11 | 0 | 1.6 | 1.6 | 0.00 | 0.00 | 0.00 | 82 | 1017.3 |
| 20260505031307 | 11 | 90 | 0.0 | 1.6 | 0.00 | 0.00 | 0.00 | 81 | 1017.2 |
| 20260505030807 | 11 | 90 | 1.6 | 1.6 | 0.00 | 0.00 | 0.00 | 81 | 1017.3 |
| 20260505030307 | 11 | 90 | 0.0 | 1.6 | 0.00 | 0.00 | 0.00 | 81 | 1017.4 |
| 20260505025807 | 11 | 90 | 0.0 | 1.6 | 0.00 | 0.00 | 0.00 | 81 | 1017.4 |
| 20260505024807 | 11 | 135 | 0.0 | 1.6 | 0.00 | 0.00 | 0.00 | 80 | 1017.4 |
| 20260505023807 | 11 | 225 | 0.0 | 1.6 | 0.00 | 0.00 | 0.00 | 81 | 1017.4 |
| 20260505022811 | 11 | 219 | 0.0 | 0.0 | 0.00 | 0.00 | 0.00 | 81 | 1017.5 |
| 20260505022307 | 11 | 90 | 0.0 | 0.0 | 0.00 | 0.00 | 0.00 | 81 | 1017.5 |
| 20260505021816 | 11 | 90 | 0.0 | 1.6 | 0.00 | 0.00 | 0.00 | 80 | 1017.4 |
| 20260505021308 | 11 | 90 | 0.0 | 1.6 | 0.00 | 0.00 | 0.00 | 80 | 1017.5 |
| 20260505020807 | 11 | 90 | 0.0 | 0.0 | 0.00 | 0.00 | 0.00 | 79 | 1017.6 |
| 20260505020307 | 11 | 90 | 0.0 | 0.0 | 0.00 | 0.00 | 0.00 | 79 | 1017.6 |
| 20260505015807 | 11 | 96 | 0.0 | 0.0 | 0.00 | 0.00 | 0.00 | 79 | 1017.6 |
| 20260505015320 | 11 | 310 | 0.0 | 3.2 | 0.00 | 0.00 | 0.00 | 80 | 1017.5 |
| 20260505014807 | 11 | 315 | 1.6 | 3.2 | 0.00 | 0.00 | 0.00 | 81 | 1017.6 |
| 20260505014307 | 11 | 90 | 0.0 | 1.6 | 0.00 | 0.00 | 0.00 | 81 | 1017.6 |
| 20260505013807 | 11 | 315 | 0.0 | 3.2 | 0.00 | 0.00 | 0.00 | 81 | 1017.6 |
| 20260505012807 | 11 | 315 | 1.6 | 1.6 | 0.00 | 0.00 | 0.00 | 81 | 1017.7 |
| 20260505012307 | 10 | 315 | 0.0 | 1.6 | 0.00 | 0.00 | 0.00 | 81 | 1017.6 |
| 20260505011807 | 10 | 315 | 1.6 | 1.6 | 0.00 | 0.00 | 0.00 | 81 | 1017.7 |
| 20260505011310 | 10 | 315 | 0.0 | 4.8 | 0.00 | 0.00 | 0.00 | 81 | 1017.7 |
| 20260505010808 | 10 | 315 | 1.6 | 4.8 | 0.00 | 0.00 | 0.00 | 81 | 1017.7 |
| 20260505010308 | 10 | 318 | 1.6 | 1.6 | 0.00 | 0.00 | 0.00 | 80 | 1017.7 |
| 20260505005808 | 10 | 315 | 0.0 | 1.6 | 0.00 | 0.00 | 0.00 | 80 | 1017.8 |
| 20260505005308 | 10 | 90 | 0.0 | 3.2 | 0.00 | 0.00 | 0.00 | 80 | 1017.8 |
| 20260505004807 | 10 | 324 | 1.6 | 3.2 | 0.00 | 0.00 | 0.00 | 80 | 1017.7 |
| 20260505004307 | 10 | 132 | 1.6 | 1.6 | 0.00 | 0.00 | 0.00 | 80 | 1017.8 |
| 20260505003807 | 10 | 315 | 0.0 | 1.6 | 0.00 | 0.00 | 0.00 | 81 | 1017.8 |
| 20260505003308 | 10 | 273 | 1.6 | 1.6 | 0.00 | 0.00 | 0.00 | 80 | 1017.7 |
| 20260505002307 | 10 | 85 | 0.0 | 1.6 | 0.00 | 0.00 | 0.00 | 80 | 1017.8 |
| 20260505001807 | 10 | 90 | 1.6 | 1.6 | 0.00 | 0.00 | 0.00 | 80 | 1017.8 |
| 20260505001307 | 10 | 276 | 0.0 | 1.6 | 0.00 | 0.00 | 0.00 | 81 | 1017.9 |
| 20260505000807 | 10 | 135 | 0.0 | 1.6 | 0.00 | 0.00 | 0.00 | 81 | 1017.9 |
| 20260505000310 | 10 | 315 | 0.0 | 1.6 | 0.00 | 0.00 | 0.00 | 81 | 1018.1 |
| 20260504235807 | 10 | 354 | 1.6 | 1.6 | 0.00 | 0.00 | 0.00 | 81 | 1018.0 |
| 20260504235308 | 10 | 180 | 0.0 | 1.6 | 0.00 | 0.00 | 0.00 | 81 | 1018.1 |
| 20260504234809 | 10 | 270 | 0.0 | 3.2 | 0.00 | 0.00 | 0.00 | 81 | 1018.0 |
| 20260504234308 | 10 | 315 | 0.0 | 1.6 | 0.00 | 0.00 | 0.00 | 80 | 1018.1 |
| 20260504233807 | 10 | 270 | 0.0 | 1.6 | 0.00 | 0.00 | 0.00 | 80 | 1018.1 |
| 20260504233308 | 10 | 319 | 0.0 | 1.6 | 0.00 | 0.00 | 0.00 | 79 | 1018.3 |
| 20260504232806 | 10 | 0 | 1.6 | 1.6 | 0.00 | 0.00 | 0.00 | 79 | 1018.2 |
| 20260504232307 | 10 | 135 | 0.0 | 1.6 | 0.00 | 0.00 | 0.00 | 78 | 1018.1 |
| 20260504231807 | 10 | 79 | 1.6 | 1.6 | 0.00 | 0.00 | 0.00 | 77 | 1018.2 |
| 20260504231307 | 10 | 0 | 1.6 | 1.6 | 0.00 | 0.00 | 0.00 | 77 | 1018.4 |
| 20260504230807 | 10 | 90 | 1.6 | 1.6 | 0.00 | 0.00 | 0.00 | 76 | 1018.4 |
| 20260504230307 | 11 | 131 | 1.6 | 1.6 | 0.00 | 0.00 | 0.00 | 76 | 1018.6 |
| 20260504225807 | 11 | 95 | 1.6 | 1.6 | 0.00 | 0.00 | 0.00 | 76 | 1018.5 |
| 20260504225307 | 11 | 270 | 1.6 | 1.6 | 0.00 | 0.00 | 0.00 | 75 | 1018.6 |
| 20260504224807 | 11 | 90 | 1.6 | 1.6 | 0.00 | 0.00 | 0.00 | 75 | 1018.6 |
| 20260504224307 | 11 | 90 | 0.0 | 1.6 | 0.00 | 0.00 | 0.00 | 73 | 1018.6 |
| 20260504223807 | 11 | 270 | 0.0 | 1.6 | 0.00 | 0.00 | 0.00 | 77 | 1018.5 |
| 20260504223309 | 11 | 354 | 0.0 | 1.6 | 0.00 | 0.00 | 0.00 | 77 | 1018.6 |
| 20260504222807 | 11 | 86 | 1.6 | 1.6 | 0.00 | 0.00 | 0.00 | 76 | 1018.6 |
| 20260504222307 | 11 | 90 | 1.6 | 1.6 | 0.00 | 0.00 | 0.00 | 76 | 1018.8 |
| 20260504220816 | 11 | 315 | 0.0 | 1.6 | 0.00 | 0.00 | 0.00 | 73 | 1018.8 |
| 20260504215807 | 11 | 357 | 1.6 | 1.6 | 0.00 | 0.00 | 0.00 | 72 | 1018.8 |
| 20260504215307 | 12 | 4 | 1.6 | 1.6 | 0.00 | 0.00 | 0.00 | 72 | 1018.7 |
| 20260504214816 | 12 | 90 | 1.6 | 1.6 | 0.00 | 0.00 | 0.00 | 71 | 1018.7 |
| 20260504214307 | 12 | 90 | 1.6 | 1.6 | 0.00 | 0.00 | 0.00 | 71 | 1018.8 |
| 20260504213807 | 12 | 85 | 0.0 | 1.6 | 0.00 | 0.00 | 0.00 | 71 | 1018.7 |
| 20260504212810 | 12 | 270 | 0.0 | 1.6 | 0.00 | 0.00 | 0.00 | 71 | 1018.6 |
| 20260504211807 | 12 | 0 | 1.6 | 3.2 | 0.00 | 0.00 | 0.00 | 71 | 1018.6 |
| 20260504210307 | 12 | 315 | 0.0 | 3.2 | 0.00 | 0.00 | 0.00 | 70 | 1018.8 |
| 20260504205807 | 13 | 90 | 1.6 | 3.2 | 0.00 | 0.00 | 0.00 | 70 | 1018.8 |
| 20260504205306 | 13 | 90 | 1.6 | 1.6 | 0.00 | 0.00 | 0.00 | 69 | 1018.7 |
| 20260504204307 | 13 | 79 | 1.6 | 1.6 | 0.00 | 0.00 | 0.00 | 69 | 1018.8 |
| 20260504203307 | 13 | 94 | 1.6 | 3.2 | 0.00 | 0.00 | 0.00 | 69 | 1018.9 |
| 20260504202807 | 13 | 90 | 1.6 | 3.2 | 0.00 | 0.00 | 0.00 | 70 | 1018.9 |
| 20260504202307 | 13 | 90 | 1.6 | 3.2 | 0.00 | 0.00 | 0.00 | 69 | 1018.9 |
| 20260504201810 | 13 | 0 | 1.6 | 3.2 | 0.00 | 0.00 | 0.00 | 69 | 1018.9 |
| 20260504201307 | 13 | 135 | 0.0 | 3.2 | 0.00 | 0.00 | 0.00 | 68 | 1018.8 |
| 20260504200307 | 14 | 225 | 0.0 | 1.6 | 0.00 | 0.00 | 0.00 | 66 | 1018.9 |
| 20260504195806 | 14 | 149 | 1.6 | 1.6 | 0.00 | 0.00 | 0.00 | 66 | 1018.8 |
| 20260504195316 | 15 | 90 | 1.6 | 1.6 | 0.00 | 0.00 | 0.00 | 65 | 1018.7 |
| 20260504194807 | 15 | 270 | 0.0 | 1.6 | 0.00 | 0.00 | 0.00 | 64 | 1018.7 |
| 20260504194308 | 15 | 312 | 1.6 | 3.2 | 0.00 | 0.00 | 0.00 | 64 | 1018.8 |
| 20260504193308 | 15 | 90 | 1.6 | 1.6 | 0.00 | 0.00 | 0.00 | 63 | 1018.6 |
| 20260504192811 | 15 | 221 | 1.6 | 3.2 | 0.00 | 0.00 | 0.00 | 63 | 1018.4 |
| 20260504192307 | 15 | 270 | 1.6 | 4.8 | 0.00 | 0.00 | 0.00 | 63 | 1018.4 |
| 20260504190807 | 16 | 317 | 1.6 | 3.2 | 0.00 | 0.00 | 0.00 | 62 | 1018.3 |
| 20260504190313 | 16 | 270 | 1.6 | 3.2 | 0.00 | 0.00 | 0.00 | 62 | 1018.3 |
| 20260504185807 | 16 | 85 | 1.6 | 4.8 | 0.00 | 0.00 | 0.00 | 62 | 1018.1 |
| 20260504185306 | 16 | 3 | 1.6 | 4.8 | 0.00 | 0.00 | 0.00 | 62 | 1018.1 |
| 20260504184806 | 16 | 90 | 1.6 | 3.2 | 0.00 | 0.00 | 0.00 | 62 | 1018.2 |
| 20260504183807 | 16 | 315 | 1.6 | 3.2 | 0.00 | 0.00 | 0.00 | 61 | 1018.0 |
| 20260504183307 | 16 | 315 | 1.6 | 3.2 | 0.00 | 0.00 | 0.00 | 60 | 1018.0 |
| 20260504182808 | 16 | 90 | 1.6 | 1.6 | 0.00 | 0.00 | 0.00 | 55 | 1017.9 |
| 20260504182307 | 17 | 90 | 1.6 | 4.8 | 0.00 | 0.00 | 0.00 | 54 | 1017.9 |
| 20260504181308 | 17 | 135 | 1.6 | 3.2 | 0.00 | 0.00 | 0.00 | 52 | 1017.7 |
| 20260504180806 | 18 | 6 | 0.0 | 1.6 | 0.00 | 0.00 | 0.00 | 51 | 1017.6 |
| 20260504175807 | 19 | 135 | 1.6 | 1.6 | 0.00 | 0.00 | 0.00 | 50 | 1017.6 |
| 20260504175308 | 20 | 141 | 0.0 | 1.6 | 0.00 | 0.00 | 0.00 | 49 | 1017.5 |
| 20260504174808 | 20 | 0 | 0.0 | 1.6 | 0.00 | 0.00 | 0.00 | 50 | 1017.4 |
| 20260504174307 | 21 | 135 | 1.6 | 3.2 | 0.00 | 0.00 | 0.00 | 46 | 1017.4 |
| 20260504173807 | 21 | 219 | 1.6 | 3.2 | 0.00 | 0.00 | 0.00 | 41 | 1017.3 |
| 20260504173308 | 21 | 270 | 1.6 | 1.6 | 0.00 | 0.00 | 0.00 | 42 | 1017.3 |
| 20260504172806 | 21 | 225 | 1.6 | 1.6 | 0.00 | 0.00 | 0.00 | 49 | 1017.1 |
| 20260504172306 | 21 | 315 | 0.0 | 3.2 | 0.00 | 0.00 | 0.00 | 50 | 1017.1 |
| 20260504171307 | 22 | 90 | 1.6 | 1.6 | 0.00 | 0.00 | 0.00 | 40 | 1017.0 |
| 20260504170808 | 23 | 315 | 1.6 | 3.2 | 0.00 | 0.00 | 0.00 | 34 | 1016.9 |
| 20260504170307 | 23 | 351 | 1.6 | 3.2 | 0.00 | 0.00 | 0.00 | 33 | 1017.0 |
| 20260504160308 | 24 | 270 | 1.6 | 3.2 | 0.00 | 0.00 | 0.00 | 30 | 1016.6 |
| 20260504150308 | 26 | 315 | 4.8 | 8.0 | 0.00 | 0.00 | 0.00 | 30 | 1016.7 |
| 20260504141307 | 26 | 221 | 4.8 | 9.7 | 0.00 | 0.00 | 0.00 | 28 | 1017.0 |
| 20260504140808 | 26 | 0 | 8.0 | 9.7 | 0.00 | 0.00 | 0.00 | 27 | 1017.0 |
| 20260504130811 | 26 | 180 | 3.2 | 4.8 | 0.00 | 0.00 | 0.00 | 23 | 1017.3 |
| 20260504130307 | 26 | 180 | 3.2 | 11.3 | 0.00 | 0.00 | 0.00 | 23 | 1017.4 |